When you browse on this site, cookies collect data to enhance your experience and personalize the content and advertising you see.
Visit our Privacy Policy to learn more. By continuing to use the site, you agree to this use of cookies and data.

Previsão horária em Aalsmeer

Hoje, 22 Setembro, Terça-feira

Tempo Temperatura Precipitação Vento Pressão Humidade
00:00 +15°C° 0 mm 1 m/s 760 mmHg 81%
01:00 +15°C° 0 mm 1 m/s 760 mmHg 81%
02:00 +14°C° 0 mm 1 m/s 760 mmHg 82%
03:00 +13°C° 0 mm 0 m/s 759 mmHg 82%
04:00 +13°C° 0 mm 0 m/s 759 mmHg 82%
05:00 +13°C° 0 mm 0 m/s 759 mmHg 82%
06:00 +13°C° 0 mm 0 m/s 759 mmHg 81%
07:00 +16°C° 0 mm 1 m/s 759 mmHg 74%
08:00 +19°C° 0 mm 1 m/s 758 mmHg 67%
09:00 +21°C° 0 mm 1 m/s 758 mmHg 60%
10:00 +21°C° 0 mm 2 m/s 758 mmHg 54%
11:00 +23°C° 0 mm 2 m/s 758 mmHg 48%
12:00 +24°C° 0 mm 2 m/s 758 mmHg 42%
13:00 +24°C° 0 mm 2 m/s 757 mmHg 43%
14:00 +24°C° 0 mm 2 m/s 756 mmHg 44%
15:00 +24°C° 0 mm 2 m/s 756 mmHg 44%
16:00 +21°C° 0 mm 2 m/s 755 mmHg 50%
17:00 +20°C° 0 mm 2 m/s 755 mmHg 55%
18:00 +18°C° 0 mm 2 m/s 755 mmHg 61%
19:00 +17°C° 0 mm 2 m/s 754 mmHg 62%
20:00 +17°C° 0 mm 2 m/s 754 mmHg 63%
21:00 +16°C° 0 mm 2 m/s 754 mmHg 64%
22:00 +16°C° 0 mm 2 m/s 754 mmHg 65%
23:00 +16°C° 0 mm 3 m/s 754 mmHg 66%

Amanhã, 23 Setembro, Quarta-feira

Tempo Temperatura Precipitação Vento Pressão Humidade
00:00 +16°C° 0 mm 3 m/s 753 mmHg 67%
01:00 +16°C° 0 mm 3 m/s 753 mmHg 69%
02:00 +14°C° 0 mm 4 m/s 753 mmHg 71%
03:00 +14°C° 0 mm 4 m/s 753 mmHg 74%
04:00 +14°C° 0 mm 4 m/s 753 mmHg 79%
05:00 +14°C° 0 mm 4 m/s 753 mmHg 83%
06:00 +14°C° 0 mm 4 m/s 753 mmHg 88%
07:00 +16°C° 0 mm 5 m/s 753 mmHg 83%
08:00 +17°C° 0 mm 5 m/s 752 mmHg 78%
09:00 +19°C° 0 mm 5 m/s 752 mmHg 73%
10:00 +20°C° 0.1 mm 6 m/s 752 mmHg 73%
11:00 +20°C° 0.1 mm 7 m/s 752 mmHg 72%
12:00 +20°C° 0.1 mm 8 m/s 752 mmHg 72%
13:00 +20°C° 0.1 mm 7 m/s 752 mmHg 71%
14:00 +20°C° 0.1 mm 7 m/s 751 mmHg 69%
15:00 +20°C° 0.1 mm 6 m/s 751 mmHg 68%
16:00 +19°C° 0.2 mm 6 m/s 751 mmHg 72%
17:00 +17°C° 0.2 mm 5 m/s 751 mmHg 75%
18:00 +17°C° 0.2 mm 5 m/s 750 mmHg 79%
19:00 +16°C° 0 mm 5 m/s 750 mmHg 80%
20:00 +17°C° 0 mm 4 m/s 750 mmHg 80%
21:00 +15°C° 0 mm 4 m/s 749 mmHg 81%
22:00 +15°C° 1.1 mm 4 m/s 749 mmHg 84%
23:00 +15°C° 1.1 mm 4 m/s 748 mmHg 88%

Depois de amanhã, 24 Setembro, Quinta-feira

Tempo Temperatura Precipitação Vento Pressão Humidade
00:00 +15°C° 1.1 mm 4 m/s 748 mmHg 91%
01:00 +14°C° 0.5 mm 5 m/s 748 mmHg 87%
02:00 +14°C° 0.5 mm 6 m/s 748 mmHg 83%
03:00 +12°C° 0.5 mm 7 m/s 748 mmHg 79%
04:00 +12°C° 0 mm 7 m/s 749 mmHg 77%
05:00 +12°C° 0 mm 7 m/s 749 mmHg 75%
06:00 +11°C° 0 mm 7 m/s 750 mmHg 73%
07:00 +12°C° 0 mm 7 m/s 750 mmHg 67%
08:00 +14°C° 0 mm 7 m/s 751 mmHg 62%
09:00 +15°C° 0 mm 6 m/s 751 mmHg 56%
10:00 +15°C° 0 mm 6 m/s 751 mmHg 57%
11:00 +15°C° 0 mm 7 m/s 751 mmHg 58%
12:00 +15°C° 0 mm 7 m/s 751 mmHg 58%
13:00 +16°C° 0 mm 7 m/s 750 mmHg 57%
14:00 +16°C° 0 mm 7 m/s 750 mmHg 55%
15:00 +16°C° 0 mm 7 m/s 749 mmHg 54%
16:00 +15°C° 0.7 mm 6 m/s 749 mmHg 63%
17:00 +14°C° 0.7 mm 5 m/s 749 mmHg 73%
18:00 +13°C° 0.7 mm 4 m/s 748 mmHg 82%
19:00 +12°C° 1.7 mm 4 m/s 748 mmHg 84%
20:00 +12°C° 1.7 mm 4 m/s 748 mmHg 86%
21:00 +10°C° 1.7 mm 5 m/s 748 mmHg 88%
22:00 +10°C° 0.1 mm 5 m/s 747 mmHg 88%
23:00 +10°C° 0.1 mm 5 m/s 747 mmHg 88%

25 Setembro, Sexta-feira

Tempo Temperatura Precipitação Vento Pressão Humidade
00:00 +10°C° 0.1 mm 6 m/s 747 mmHg 88%
01:00 +10°C° 0.2 mm 6 m/s 746 mmHg 86%
02:00 +10°C° 0.2 mm 7 m/s 746 mmHg 84%
03:00 +10°C° 0.2 mm 7 m/s 745 mmHg 82%
04:00 +9°C° 0.1 mm 7 m/s 745 mmHg 82%
05:00 +9°C° 0.1 mm 7 m/s 745 mmHg 82%
06:00 +8°C° 0.1 mm 7 m/s 745 mmHg 82%
07:00 +9°C° 0.2 mm 7 m/s 745 mmHg 79%
08:00 +10°C° 0.2 mm 8 m/s 745 mmHg 76%
09:00 +10°C° 0.2 mm 8 m/s 745 mmHg 74%
10:00 +11°C° 0.6 mm 8 m/s 745 mmHg 72%
11:00 +11°C° 0.6 mm 8 m/s 745 mmHg 71%
12:00 +12°C° 0.6 mm 8 m/s 746 mmHg 70%
13:00 +12°C° 1.2 mm 9 m/s 746 mmHg 73%
14:00 +11°C° 1.2 mm 10 m/s 746 mmHg 77%
15:00 +11°C° 1.2 mm 10 m/s 746 mmHg 80%
16:00 +11°C° 0.4 mm 11 m/s 746 mmHg 79%
17:00 +11°C° 0.4 mm 11 m/s 747 mmHg 78%
18:00 +10°C° 0.4 mm 12 m/s 747 mmHg 78%
19:00 +11°C° 0.5 mm 11 m/s 747 mmHg 77%
20:00 +11°C° 0.5 mm 11 m/s 748 mmHg 77%
21:00 +11°C° 0.5 mm 11 m/s 748 mmHg 76%
22:00 +11°C° 0.4 mm 11 m/s 749 mmHg 76%
23:00 +11°C° 0.4 mm 11 m/s 749 mmHg 76%

26 Setembro, Sábado

Tempo Temperatura Precipitação Vento Pressão Humidade
00:00 +9°C° 0.4 mm 11 m/s 749 mmHg 76%
01:00 +9°C° 0.3 mm 11 m/s 750 mmHg 74%
02:00 +9°C° 0.3 mm 11 m/s 750 mmHg 73%
03:00 +9°C° 0.3 mm 11 m/s 751 mmHg 71%
04:00 +9°C° 0.2 mm 11 m/s 751 mmHg 70%
05:00 +9°C° 0.2 mm 11 m/s 752 mmHg 69%
06:00 +9°C° 0.2 mm 11 m/s 753 mmHg 69%
07:00 +11°C° 0.1 mm 10 m/s 753 mmHg 67%
08:00 +11°C° 0.1 mm 10 m/s 753 mmHg 66%
09:00 +11°C° 0.1 mm 10 m/s 753 mmHg 64%
10:00 +11°C° 0.2 mm 10 m/s 753 mmHg 63%
11:00 +12°C° 0.2 mm 10 m/s 753 mmHg 62%
12:00 +12°C° 0.2 mm 11 m/s 753 mmHg 61%
13:00 +11°C° 0.7 mm 10 m/s 752 mmHg 67%
14:00 +11°C° 0.7 mm 10 m/s 752 mmHg 74%
15:00 +9°C° 0.7 mm 10 m/s 752 mmHg 81%
16:00 +10°C° 0.8 mm 9 m/s 751 mmHg 81%
17:00 +11°C° 0.8 mm 8 m/s 751 mmHg 81%
18:00 +11°C° 0.8 mm 8 m/s 751 mmHg 82%
19:00 +11°C° 0.6 mm 8 m/s 751 mmHg 82%
20:00 +11°C° 0.6 mm 8 m/s 751 mmHg 82%
21:00 +11°C° 0.6 mm 9 m/s 751 mmHg 82%
22:00 +11°C° 0.4 mm 8 m/s 751 mmHg 82%
23:00 +11°C° 0.4 mm 8 m/s 751 mmHg 83%

27 Setembro, Domingo

Tempo Temperatura Precipitação Vento Pressão Humidade
00:00 +11°C° 0.4 mm 8 m/s 751 mmHg 84%
01:00 +11°C° 0.3 mm 7 m/s 752 mmHg 84%
02:00 +10°C° 0.3 mm 6 m/s 752 mmHg 85%
03:00 +10°C° 0.3 mm 5 m/s 752 mmHg 86%
04:00 +10°C° 0.3 mm 6 m/s 752 mmHg 86%
05:00 +10°C° 0.3 mm 6 m/s 753 mmHg 86%
06:00 +10°C° 0.3 mm 6 m/s 753 mmHg 85%
07:00 +11°C° 0.3 mm 6 m/s 753 mmHg 84%
08:00 +12°C° 0.3 mm 7 m/s 753 mmHg 82%
09:00 +12°C° 0.3 mm 7 m/s 753 mmHg 80%
10:00 +14°C° 0.1 mm 7 m/s 753 mmHg 77%
11:00 +15°C° 0.1 mm 8 m/s 753 mmHg 74%
12:00 +15°C° 0.1 mm 8 m/s 753 mmHg 71%
13:00 +15°C° 0.4 mm 9 m/s 752 mmHg 74%
14:00 +13°C° 0.4 mm 10 m/s 752 mmHg 78%
15:00 +12°C° 0.4 mm 10 m/s 751 mmHg 82%
16:00 +12°C° 2 mm 11 m/s 751 mmHg 84%
17:00 +12°C° 2 mm 12 m/s 751 mmHg 86%
18:00 +13°C° 2 mm 12 m/s 750 mmHg 88%
19:00 +13°C° 0.9 mm 12 m/s 750 mmHg 88%
20:00 +14°C° 0.9 mm 12 m/s 750 mmHg 88%
21:00 +14°C° 0.9 mm 11 m/s 750 mmHg 89%
22:00 +16°C° 0.3 mm 11 m/s 750 mmHg 89%
23:00 +16°C° 0.3 mm 10 m/s 751 mmHg 90%
Mostrar mais